User: anonymous   Login
Location: Igon
(43.1667°N, 0.2333°W)
Time: 07:22:03
(UTC+00:00)
Language:

RESURS O1 DEB - Orbit

View from above orbital plane
View from above orbital plane
View from above satellite
View from above satellite

Ground track
Ground track

The orbit data is extracted from the following two-line orbital elements,

1 47209U 94074CV  21166.89199697  .00002604  00000-0  33636-3 0  9996
2 47209  97.8941 216.7234 0004467  77.9489 282.2224 14.81798425 31355
Epoch (UTC): 15 June 2021 21:24:28
Eccentricity: 0.0004467
inclination: 97.8941°
perigee height: 620 km
apogee height: 627 km
right ascension of ascending node: 216.7234°
argument of perigee: 77.9489°
revolutions per day: 14.81798425
mean anomaly at epoch: 282.2224°
orbit number at epoch: 3135

The dashed part of the orbit path shows where the satellite is in the earth's shadow,  

DLR